When you browse on this site, cookies collect data to enhance your experience and personalize the content and advertising you see.
Visit our Privacy Policy to learn more. By continuing to use the site, you agree to this use of cookies and data.
  • In Netherlands
  • List of Countries
  • For 7 days
  • Water Temperature
  • Weather Map
  • Weather Widgets
  • user-avatar
    Login

    Hourly Weather Suhotskoe

    Today, 19 October, Saturday

    Time Temperature Precipitation Wind Pressure Humidity
    00:00 +15°C° 0 mm 0 mps 747 mmHg 75%
    01:00 +15°C° 0 mm 0 mps 747 mmHg 75%
    02:00 +14°C° 0 mm 0 mps 747 mmHg 75%
    03:00 +14°C° 0 mm 0 mps 747 mmHg 75%
    04:00 +14°C° 0 mm 0 mps 747 mmHg 76%
    05:00 +14°C° 0 mm 0 mps 747 mmHg 77%
    06:00 +13°C° 0 mm 0 mps 747 mmHg 78%
    07:00 +15°C° 0 mm 0 mps 748 mmHg 72%
    08:00 +16°C° 0 mm 0 mps 748 mmHg 65%
    09:00 +18°C° 0 mm 0 mps 748 mmHg 59%
    10:00 +21°C° 0 mm 1 mps 748 mmHg 53%
    11:00 +23°C° 0 mm 1 mps 748 mmHg 48%
    12:00 +24°C° 0 mm 1 mps 748 mmHg 42%
    13:00 +25°C° 0 mm 2 mps 748 mmHg 40%
    14:00 +25°C° 0 mm 2 mps 748 mmHg 38%
    15:00 +25°C° 0 mm 2 mps 748 mmHg 36%
    16:00 +24°C° 0 mm 2 mps 748 mmHg 41%
    17:00 +21°C° 0 mm 2 mps 748 mmHg 45%
    18:00 +19°C° 0 mm 2 mps 748 mmHg 49%
    19:00 +19°C° 0 mm 2 mps 749 mmHg 51%
    20:00 +18°C° 0 mm 2 mps 749 mmHg 53%
    21:00 +18°C° 0 mm 1 mps 749 mmHg 54%
    22:00 +18°C° 0 mm 1 mps 749 mmHg 57%
    23:00 +18°C° 0 mm 1 mps 749 mmHg 59%

    Tomorrow, 20 October, Sunday

    Time Temperature Precipitation Wind Pressure Humidity
    00:00 +16°C° 0 mm 1 mps 749 mmHg 61%
    01:00 +16°C° 0 mm 1 mps 749 mmHg 64%
    02:00 +15°C° 0 mm 1 mps 749 mmHg 67%
    03:00 +15°C° 0 mm 1 mps 749 mmHg 69%
    04:00 +15°C° 0 mm 1 mps 749 mmHg 71%
    05:00 +14°C° 0 mm 1 mps 750 mmHg 73%
    06:00 +14°C° 0 mm 1 mps 750 mmHg 75%
    07:00 +15°C° 0 mm 1 mps 750 mmHg 71%
    08:00 +18°C° 0 mm 1 mps 750 mmHg 66%
    09:00 +18°C° 0 mm 2 mps 750 mmHg 61%
    10:00 +20°C° 0 mm 2 mps 750 mmHg 56%
    11:00 +21°C° 0 mm 3 mps 750 mmHg 51%
    12:00 +24°C° 0 mm 3 mps 750 mmHg 46%
    13:00 +23°C° 0 mm 4 mps 750 mmHg 44%
    14:00 +23°C° 0 mm 4 mps 750 mmHg 43%
    15:00 +23°C° 0 mm 4 mps 750 mmHg 41%
    16:00 +21°C° 0 mm 4 mps 750 mmHg 44%
    17:00 +20°C° 0 mm 3 mps 750 mmHg 47%
    18:00 +18°C° 0 mm 3 mps 751 mmHg 50%
    19:00 +18°C° 0 mm 3 mps 751 mmHg 51%
    20:00 +17°C° 0 mm 3 mps 751 mmHg 53%
    21:00 +15°C° 0 mm 4 mps 751 mmHg 55%
    22:00 +16°C° 0 mm 3 mps 751 mmHg 58%
    23:00 +14°C° 0 mm 3 mps 751 mmHg 61%

    Day after tomorrow, 21 October, Monday

    Time Temperature Precipitation Wind Pressure Humidity
    00:00 +14°C° 0 mm 2 mps 751 mmHg 65%
    01:00 +14°C° 0 mm 2 mps 751 mmHg 68%
    02:00 +13°C° 0 mm 2 mps 751 mmHg 72%
    03:00 +13°C° 0 mm 2 mps 751 mmHg 76%
    04:00 +12°C° 0 mm 2 mps 751 mmHg 80%
    05:00 +12°C° 0 mm 2 mps 751 mmHg 84%
    06:00 +10°C° 0 mm 2 mps 751 mmHg 88%
    07:00 +13°C° 0 mm 2 mps 751 mmHg 82%
    08:00 +13°C° 0 mm 3 mps 751 mmHg 76%
    09:00 +14°C° 0 mm 3 mps 751 mmHg 69%
    10:00 +17°C° 0 mm 4 mps 751 mmHg 63%
    11:00 +18°C° 0 mm 4 mps 751 mmHg 56%
    12:00 +20°C° 0 mm 5 mps 750 mmHg 49%
    13:00 +20°C° 0 mm 5 mps 750 mmHg 48%
    14:00 +20°C° 0 mm 5 mps 750 mmHg 46%
    15:00 +21°C° 0 mm 5 mps 750 mmHg 45%
    16:00 +19°C° 0 mm 4 mps 750 mmHg 50%
    17:00 +18°C° 0 mm 4 mps 750 mmHg 54%
    18:00 +16°C° 0 mm 3 mps 750 mmHg 59%
    19:00 +16°C° 0 mm 3 mps 750 mmHg 63%
    20:00 +14°C° 0 mm 4 mps 750 mmHg 67%
    21:00 +13°C° 0 mm 4 mps 750 mmHg 71%
    22:00 +13°C° 0 mm 3 mps 750 mmHg 75%
    23:00 +12°C° 0 mm 3 mps 750 mmHg 80%

    22 October, Tuesday

    Time Temperature Precipitation Wind Pressure Humidity
    00:00 +12°C° 0 mm 2 mps 750 mmHg 85%
    01:00 +12°C° 0 mm 2 mps 750 mmHg 88%
    02:00 +12°C° 0 mm 2 mps 750 mmHg 91%
    03:00 +10°C° 0 mm 2 mps 750 mmHg 94%
    04:00 +10°C° 0 mm 2 mps 750 mmHg 94%
    05:00 +10°C° 0 mm 2 mps 750 mmHg 95%
    06:00 +10°C° 0 mm 2 mps 750 mmHg 96%
    07:00 +12°C° 0 mm 2 mps 750 mmHg 91%
    08:00 +13°C° 0 mm 2 mps 750 mmHg 87%
    09:00 +14°C° 0 mm 2 mps 750 mmHg 83%
    10:00 +15°C° 0 mm 2 mps 750 mmHg 77%
    11:00 +16°C° 0 mm 3 mps 750 mmHg 72%
    12:00 +17°C° 0 mm 3 mps 750 mmHg 67%
    13:00 +17°C° 0 mm 3 mps 750 mmHg 63%
    14:00 +18°C° 0 mm 3 mps 750 mmHg 59%
    15:00 +19°C° 0 mm 4 mps 750 mmHg 56%
    16:00 +18°C° 0 mm 3 mps 750 mmHg 60%
    17:00 +16°C° 0 mm 3 mps 750 mmHg 64%
    18:00 +15°C° 0 mm 2 mps 750 mmHg 68%
    19:00 +15°C° 0 mm 2 mps 750 mmHg 71%
    20:00 +14°C° 0 mm 2 mps 750 mmHg 74%
    21:00 +12°C° 0 mm 3 mps 750 mmHg 76%
    22:00 +13°C° 0 mm 2 mps 750 mmHg 80%
    23:00 +12°C° 0 mm 2 mps 750 mmHg 84%

    23 October, Wednesday

    Time Temperature Precipitation Wind Pressure Humidity
    00:00 +12°C° 0 mm 2 mps 750 mmHg 87%
    01:00 +12°C° 0 mm 2 mps 749 mmHg 89%
    02:00 +10°C° 0 mm 2 mps 749 mmHg 91%
    03:00 +10°C° 0 mm 2 mps 749 mmHg 92%
    04:00 +11°C° 0 mm 1 mps 750 mmHg 93%
    05:00 +10°C° 0 mm 1 mps 750 mmHg 93%
    06:00 +10°C° 0 mm 1 mps 750 mmHg 94%
    07:00 +12°C° 0 mm 1 mps 750 mmHg 88%
    08:00 +13°C° 0 mm 1 mps 750 mmHg 82%
    09:00 +14°C° 0 mm 1 mps 750 mmHg 76%
    10:00 +16°C° 0 mm 2 mps 750 mmHg 70%
    11:00 +18°C° 0 mm 2 mps 750 mmHg 63%
    12:00 +19°C° 0 mm 3 mps 750 mmHg 57%
    13:00 +19°C° 0 mm 3 mps 749 mmHg 56%
    14:00 +20°C° 0 mm 4 mps 749 mmHg 56%
    15:00 +20°C° 0 mm 4 mps 749 mmHg 55%
    16:00 +18°C° 0 mm 3 mps 749 mmHg 60%
    17:00 +17°C° 0 mm 3 mps 750 mmHg 65%
    18:00 +16°C° 0 mm 3 mps 750 mmHg 70%
    19:00 +15°C° 0 mm 2 mps 750 mmHg 71%
    20:00 +15°C° 0 mm 2 mps 750 mmHg 72%
    21:00 +14°C° 0 mm 2 mps 750 mmHg 73%
    22:00 +13°C° 0 mm 2 mps 750 mmHg 77%
    23:00 +13°C° 0 mm 2 mps 750 mmHg 80%

    24 October, Thursday

    Time Temperature Precipitation Wind Pressure Humidity
    00:00 +12°C° 0 mm 2 mps 750 mmHg 83%
    01:00 +12°C° 0 mm 1 mps 750 mmHg 85%
    02:00 +12°C° 0 mm 1 mps 750 mmHg 87%
    03:00 +11°C° 0 mm 1 mps 750 mmHg 89%
    04:00 +11°C° 0 mm 1 mps 750 mmHg 90%
    05:00 +11°C° 0 mm 1 mps 750 mmHg 91%
    06:00 +11°C° 0 mm 1 mps 750 mmHg 91%
    07:00 +12°C° 0 mm 1 mps 750 mmHg 85%
    08:00 +14°C° 0 mm 1 mps 750 mmHg 79%
    09:00 +15°C° 0 mm 2 mps 750 mmHg 73%
    10:00 +17°C° 0 mm 2 mps 750 mmHg 66%
    11:00 +18°C° 0 mm 3 mps 750 mmHg 59%
    12:00 +20°C° 0 mm 3 mps 749 mmHg 52%
    13:00 +20°C° 0 mm 3 mps 749 mmHg 51%
    14:00 +20°C° 0 mm 3 mps 749 mmHg 50%
    15:00 +21°C° 0 mm 3 mps 749 mmHg 50%
    16:00 +19°C° 0 mm 3 mps 749 mmHg 55%
    17:00 +18°C° 0 mm 3 mps 749 mmHg 60%
    18:00 +16°C° 0 mm 3 mps 749 mmHg 65%
    19:00 +15°C° 0 mm 2 mps 750 mmHg 66%
    20:00 +15°C° 0 mm 2 mps 750 mmHg 67%
    21:00 +14°C° 0 mm 2 mps 750 mmHg 68%
    22:00 +14°C° 0 mm 2 mps 750 mmHg 72%
    23:00 +13°C° 0 mm 2 mps 750 mmHg 76%
    Show more